sat.trackr.live / text

‹ back to catalog

2024-203C

NORAD 61871 · 2024-203C

PAYLOAD ACTIVE UNKNOWN

§ Identity

Operator
Country
PRC
Launch date
2024-11-09
Launch site
JSC
Launch vehicle
Mass (kg)
RCS (m²)

External: N2YO · Heavens-Above · Gunter

§ Orbital elements

Epoch: 2026-05-25T05:02:29.399136Z

Period
94.43 min
Inclination
97.4248°
Eccentricity
0.0013301
Mean motion
15.24943146 rev/d
Perigee alt
481.8 km
Apogee alt
500.1 km
Semi-major
6,869.1 km
B*
4.5645e-4
RAAN
214.6275°
Arg perigee
72.2390°
Mean anomaly
288.0299°
Rev number
8,536

§ Raw data

2024-203C1 61871U 24203C   26145.21006249  .00011333  00000+0  45645-3 0  99932 61871  97.4248 214.6275 0013301  72.2390 288.0299 15.24943146 85366

JSON: /api/v1/satellites/61871 · /tle

For live sub-satellite position, see the globe view (requires WebGL).

§ Visibility from observer

Set your observer location to see the next 7 days of passes ≥ 10°. The values pass through the URL so the page stays shareable.

No JS? Fill the form by hand. The geolocation button needs JavaScript.